Temp_Advection
nan nan nan nan nan nan nan nan nan nan nan nan nan nan nan nan nan nan nan nan nan nan nan nan nan nan nan nan nan nan nan nan nan
nan 0 0 0 0 0 0 -0 0 0 0 -0 -0 0 0 0 -0 -0 -0 -0 -0 -0 0 -0 -0 -0 -0 -0 -0 -0 -0 -0 nan
nan 0 0 0 0 -0 -0 -0 0 0 0 0 -0 0 0 0 0 0 0 -0 -0 -0 -0 -0 -0 -0 -0 -0 -0 -0 -0 -0 nan
nan 0 0 0 0 0 0 0 0 0 0 -0 0 0 0 0 -0 0 0 -0 -0 -0 -0 -0 0 0 0 -0 -0 -0 -0 -0 nan
nan 0 0 0 0 0 0 -0 -0 -0 -0 -0 0 0 0 -0 0 0 0 0 -0 -0 -0 -0 0 0 0 0 0 0 0 0 nan
nan 0 0 0 0 0 -0 -0 -0 -0 -0 0 0 0 -0 0 0 -0 0 0 -0 -0 -0 0 0 0 0 0 0 0 0 0 nan
nan 0 0 0 0 0 -0 -0 -0 -0 -0 0 0 0 0 0 -0 0 0 0 -0 -0 -0 -0 0 0 0 0 0 0 0 0 nan
nan 0 0 0 0 0 -0 -0 -0 0 0 0 0 -0 -0 0 0 0 -0 0 0 -0 -0 -0 -0 -0 0 0 0 0 0 0 nan
nan 0 0 0 0 0 0 0 0 -0 -0 0 0 -0 0 0 0 0 0 0 0 -0 -0 -0 -0 -0 0 0 0 0 0 0 nan
nan -0 0 0 0 0 0 0 0 0 0 -0 -0 -0 0 0 0 0 0 0 0 0 -0 -0 -0 -0 0 0 0 0 0 0 nan
nan -0 0 0 0 0 0 0 0 -0 -0 0 0 -0 -0 0 0 0 0 0 0 -0 -0 -0 -0 -0 0 0 0 0 0 0 nan
nan -0 0 0 0 0 0 0 -0 -0 0 -0 0 0 -0 -0 0 0 0 0 -0 -0 -0 -0 -0 -0 0 0 0 0 -0 0 nan
nan -0 -0 0 0 0 0 0 0 0 0 -0 0 0 -0 -0 0 -0 0 0 -0 0 -0 -0 -0 -0 -0 -0 0 0 -0 -0 nan
nan -1 -0 0 0 0 0 0 0 0 -0 0 0 0 -0 -0 -0 -0 0 0 -0 0 0 0 -0 -0 -0 -0 0 0 -0 -0 nan
nan -1 0 0 0 0 0 0 0 -0 0 0 -0 0 0 0 -0 -0 -0 -0 -0 0 0 -0 0 -0 -0 -0 -0 -0 -0 -0 nan
nan -0 -0 -0 0 0 0 0 0 0 0 -0 -1 -0 0 -0 -0 -0 0 -0 -0 0 0 -0 0 1 0 -0 -0 -0 -0 0 nan
nan -0 -1 0 0 0 0 0 0 0 1 0 -0 -1 -2 -1 -0 0 0 0 0 0 0 0 0 -0 -0 0 -0 -0 0 0 nan
nan -0 0 1 -0 0 0 0 0 0 0 0 0 -0 -0 -1 -1 -0 -0 -0 -0 0 0 0 0 0 0 0 0 -0 -0 -1 nan
nan -0 1 0 0 -0 -0 1 1 0 -0 0 1 0 0 -0 -1 -1 -0 -0 -0 -1 -0 -0 0 0 -0 0 0 0 -0 -1 nan
nan nan nan nan nan nan nan nan nan nan nan nan nan nan nan nan nan nan nan nan nan nan nan nan nan nan nan nan nan nan nan nan nan
Wind_Speed
7 7 8 10 6 4 4 4 6 7 6 8 7 6 5 2 0 2 3 4 4 5 5 5 5 5 5 4 4 4 4 4 4
8 8 8 11 9 7 6 6 7 8 9 8 10 8 6 4 2 1 1 2 3 4 4 4 3 3 3 3 3 3 4 4 4
10 10 9 10 10 8 7 7 9 11 10 10 10 9 8 6 5 3 1 2 3 3 2 2 1 1 2 2 2 2 2 3 4
12 12 11 11 10 10 9 7 9 11 12 11 10 10 9 8 7 5 4 4 3 4 4 3 2 1 1 1 2 1 1 2 4
15 14 13 13 12 11 10 9 9 11 13 13 11 12 11 11 10 8 6 6 7 7 6 6 5 4 4 3 3 3 3 3 4
17 17 15 15 14 12 11 12 10 13 13 13 12 12 11 12 13 11 8 8 10 9 8 8 8 7 6 6 6 5 5 5 5
18 17 17 16 16 15 14 13 11 14 15 15 14 13 11 12 14 13 12 8 11 11 10 10 10 10 9 8 8 8 7 7 7
19 18 18 18 17 18 17 16 14 13 15 17 17 15 14 14 15 16 15 13 12 14 13 12 12 12 12 12 11 10 10 9 9
18 18 18 19 18 16 18 18 16 15 15 17 19 19 18 16 15 19 18 17 14 16 16 15 14 14 14 15 14 13 12 11 11
19 19 19 20 21 19 18 18 17 17 18 17 19 21 21 20 19 17 20 20 19 19 18 18 18 17 16 16 16 16 15 15 14
23 23 21 21 20 20 19 20 20 18 17 17 16 16 21 23 22 21 20 21 22 23 22 21 21 21 20 19 18 17 17 17 18
26 26 24 21 20 19 20 21 22 21 20 21 21 18 17 19 23 24 24 25 26 26 26 26 23 23 23 23 21 20 20 19 21
30 29 29 26 22 18 19 19 20 21 22 24 25 22 21 22 22 23 28 31 31 31 30 29 28 26 26 25 25 23 22 20 20
33 33 31 27 25 20 16 15 16 17 20 21 23 26 27 28 28 28 29 30 31 33 32 32 32 31 29 28 27 27 25 23 21
32 35 27 27 25 22 19 17 17 17 17 19 22 25 26 28 31 32 34 32 32 33 35 35 35 35 34 32 30 28 27 23 24
22 23 27 28 29 23 19 19 19 20 19 21 24 25 26 28 31 32 33 34 34 35 37 34 36 36 37 37 33 31 27 23 29
26 26 26 27 26 22 21 20 20 21 20 20 22 20 26 28 28 29 31 32 33 35 37 40 42 40 40 39 37 37 31 32 34
33 30 28 28 25 20 19 20 21 21 22 22 20 11 10 20 22 20 22 25 28 30 34 37 40 40 41 42 42 42 41 38 33
28 28 30 20 21 22 21 22 22 23 27 28 29 30 32 30 29 27 24 25 27 31 32 33 33 38 41 45 46 47 45 41 35
26 28 30 25 23 20 23 21 23 25 27 29 29 30 32 34 36 36 30 31 33 35 36 36 37 36 38 38 40 38 37 35 35
Wind_Direction
199 195 202 196 208 212 233 237 213 195 183 180 185 184 182 199 142 59 41 19 23 23 41 57 73 73 69 63 65 66 56 47 37
215 216 216 205 221 230 242 255 224 207 198 180 185 197 199 210 248 86 353 351 6 5 13 29 49 58 51 46 51 52 50 46 36
225 227 224 216 229 240 243 255 223 217 214 204 199 200 208 216 233 231 243 297 316 316 335 5 23 17 16 26 26 41 46 31 13
231 230 230 229 235 246 245 245 220 215 216 214 204 203 209 219 237 242 250 273 294 298 303 306 304 291 299 319 331 327 343 358 359
238 235 235 234 243 247 244 242 232 222 220 220 216 210 213 221 238 245 259 269 287 292 289 291 293 289 284 280 282 285 293 305 321
241 242 241 240 244 246 247 245 244 227 224 226 224 221 222 226 230 241 258 262 277 287 284 282 282 278 274 271 271 276 279 280 293
246 244 245 244 245 247 247 249 249 234 231 231 229 229 229 232 232 244 250 253 272 282 283 277 277 275 272 269 267 269 270 273 283
244 241 240 238 238 243 244 246 249 249 241 240 239 238 238 236 234 242 254 256 268 277 279 274 272 272 271 269 266 264 264 272 279
235 238 234 236 237 244 244 250 255 255 253 251 249 246 243 242 242 239 249 255 257 268 275 276 270 269 267 267 266 263 263 269 273
241 237 239 247 246 249 252 253 257 258 256 257 257 255 252 247 246 245 247 259 258 260 268 274 275 268 265 264 264 261 260 264 269
241 246 249 251 255 259 255 254 254 255 255 254 256 264 260 255 253 252 252 258 262 262 264 268 273 272 269 266 264 261 261 266 270
242 244 242 247 256 256 251 250 253 258 262 259 252 257 262 263 257 258 259 262 264 263 264 268 267 269 269 267 265 263 265 267 266
243 240 239 241 246 249 248 251 256 260 266 271 273 271 261 266 267 268 263 261 262 264 266 268 269 271 270 266 262 259 259 265 266
242 242 240 237 239 244 246 244 251 257 262 268 271 270 270 269 269 265 268 267 261 261 262 265 268 271 272 268 265 260 259 261 266
247 244 237 241 241 240 239 242 247 259 266 269 270 266 264 261 263 262 263 263 264 263 264 264 263 267 269 268 266 261 258 262 269
248 238 246 238 238 238 244 253 257 262 267 273 276 276 270 265 263 263 267 265 257 264 265 261 262 265 264 267 265 259 259 276 272
234 236 240 242 238 229 240 248 256 263 265 269 281 287 287 278 272 270 270 270 267 269 259 268 262 261 265 262 262 260 255 277 271
241 236 228 231 234 240 243 253 258 265 268 268 264 278 267 290 290 280 270 270 269 271 268 266 265 259 266 262 262 262 259 275 263
250 247 237 233 240 245 250 250 252 257 265 271 270 269 272 276 287 282 277 271 269 268 266 269 269 263 266 263 269 266 265 270 261
243 238 242 251 241 247 243 250 255 259 264 267 272 275 279 277 270 279 278 273 274 269 266 275 274 269 266 264 270 272 266 259 263
Height
1540 1540 1540 1540 1540 1540 1541 1541 1541 1542 1543 1543 1544 1545 1544 1544 1543 1544 1544 1544 1544 1543 1543 1542 1542 1541 1541 1540 1540 1540 1540 1539 1539
1539 1539 1539 1540 1540 1540 1540 1540 1540 1541 1542 1543 1544 1544 1544 1544 1544 1543 1544 1544 1544 1544 1543 1543 1542 1542 1542 1541 1541 1540 1540 1540 1539
1537 1538 1538 1538 1539 1539 1539 1538 1539 1540 1541 1542 1543 1543 1544 1544 1544 1544 1544 1544 1544 1544 1543 1543 1543 1542 1541 1541 1541 1540 1540 1540 1539
1536 1536 1536 1536 1537 1537 1537 1537 1537 1538 1539 1540 1541 1542 1543 1543 1543 1543 1543 1543 1543 1543 1543 1543 1543 1542 1542 1541 1541 1540 1540 1540 1539
1534 1534 1534 1535 1535 1535 1536 1536 1536 1537 1538 1539 1540 1541 1541 1542 1542 1542 1543 1543 1543 1543 1543 1543 1543 1542 1542 1541 1540 1540 1540 1539 1539
1532 1532 1533 1533 1533 1533 1534 1534 1534 1534 1536 1537 1538 1539 1540 1541 1541 1541 1542 1542 1542 1542 1542 1542 1542 1541 1541 1540 1540 1539 1539 1539 1538
1529 1529 1530 1530 1531 1531 1532 1532 1532 1532 1533 1534 1535 1537 1538 1539 1539 1540 1540 1540 1541 1541 1541 1541 1540 1540 1539 1539 1538 1538 1538 1537 1537
1524 1525 1526 1526 1527 1528 1529 1529 1529 1530 1530 1532 1533 1534 1535 1536 1537 1537 1538 1538 1539 1539 1539 1538 1538 1537 1537 1536 1536 1536 1536 1536 1535
1520 1521 1522 1523 1523 1524 1525 1526 1527 1528 1528 1529 1530 1531 1532 1533 1533 1534 1535 1535 1535 1536 1536 1536 1535 1535 1534 1534 1534 1534 1534 1534 1533
1516 1517 1518 1519 1520 1521 1522 1523 1523 1524 1525 1526 1526 1527 1528 1529 1530 1530 1531 1532 1532 1533 1533 1533 1532 1531 1531 1531 1530 1530 1531 1531 1530
1511 1513 1514 1515 1516 1517 1518 1519 1520 1521 1521 1522 1523 1523 1524 1525 1526 1526 1527 1529 1529 1529 1530 1529 1529 1528 1528 1528 1527 1527 1527 1527 1527
1507 1508 1509 1511 1512 1513 1514 1515 1516 1516 1517 1518 1519 1519 1520 1520 1521 1522 1522 1523 1524 1525 1525 1525 1524 1524 1524 1524 1524 1524 1523 1523 1523
1502 1503 1504 1506 1508 1508 1509 1511 1511 1512 1512 1513 1513 1514 1515 1516 1517 1518 1518 1518 1519 1519 1519 1520 1520 1520 1520 1519 1519 1519 1520 1519 1519
1495 1498 1500 1501 1503 1504 1505 1506 1507 1508 1509 1509 1509 1510 1511 1511 1512 1512 1512 1512 1512 1513 1513 1514 1514 1514 1515 1515 1514 1514 1514 1514 1514
1490 1492 1495 1495 1497 1499 1501 1503 1504 1504 1505 1505 1505 1505 1505 1505 1505 1505 1506 1505 1505 1505 1506 1506 1507 1508 1509 1509 1508 1509 1508 1509 1509
1484 1487 1489 1492 1493 1494 1497 1498 1499 1500 1501 1501 1500 1499 1498 1498 1497 1497 1497 1497 1497 1498 1498 1498 1499 1499 1501 1502 1502 1503 1503 1503 1504
1478 1482 1485 1486 1488 1489 1492 1493 1494 1496 1497 1497 1497 1493 1491 1490 1490 1490 1490 1489 1491 1490 1490 1490 1490 1491 1492 1493 1494 1495 1496 1497 1497
1474 1476 1478 1483 1486 1485 1487 1488 1489 1491 1492 1493 1494 1492 1487 1484 1483 1482 1482 1482 1482 1482 1481 1481 1482 1482 1483 1484 1486 1487 1489 1489 1489
1469 1471 1473 1476 1480 1482 1481 1483 1484 1486 1486 1487 1486 1486 1485 1483 1475 1475 1474 1474 1473 1473 1474 1473 1473 1475 1474 1474 1476 1478 1480 1482 1483
1465 1467 1468 1470 1474 1475 1478 1478 1479 1480 1480 1480 1480 1478 1477 1477 1474 1464 1465 1465 1465 1465 1464 1465 1465 1465 1465 1466 1467 1469 1471 1474 1474